Location: Pinhey's Point
(45.4411°N, 75.9539°W)
Time: 10:53:21
(UTC-05:00)

Daily predictions for brighter satellites

Satellite Brightness Start Highest point End
(mag) Time Altitude Azimuth Time Altitude Azimuth Time Altitude Azimuth
ALOS 3.3 18:02:09 10° ESE 18:05:53 24° ENE 18:09:38 10° NNE
SJ-6B 3.6 18:05:54 10° SE 18:09:30 32° ENE 18:13:04 10° N
Cosmos 2082 Rocket 3.3 18:08:37 10° SW 18:14:04 47° WNW 18:19:37 10° NNE
Cosmos 1461 3.6 18:11:40 10° NNW 18:15:19 33° NE 18:19:00 10° ESE
SL-16 R/B 2.4 18:10:43 10° NNW 18:16:16 51° ENE 18:21:47 10° SE
Cosmos 1484 Rocket 3.7 18:12:34 10° S 18:16:29 56° W 18:20:23 10° NNW
CENTAUR R/B 3.4 18:10:33 10° NW 18:18:22 78° SW 18:26:43 10° SSE
Cosmos 1633 4.2 18:27:40 10° SE 18:29:57 16° E 18:32:15 10° NE
SKYMED 2 3.9 18:26:02 10° N 18:30:23 73° WNW 18:34:42 10° SSW
NOSS 2-2 (E) 3.5 18:26:32 10° SSW 18:30:38 82° SE 18:35:31 10° NE
Cosmos 1975 Rocket 3.2 18:26:19 10° NNW 18:30:39 77° W 18:34:57 10° S
Cosmos 44 Rocket 3.6 18:26:05 10° NW 18:30:50 67° WSW 18:35:28 10° SSE
HJ-1C 4.1 18:29:31 10° SE 18:32:33 32° ENE 18:35:36 10° N
RESURS DK-1 4.4 18:32:10 10° WSW 18:35:46 28° NW 18:39:22 10° N
Cosmos 2322 Rocket 2.1 18:30:10 10° NNW 18:35:48 72° ENE 18:41:24 10° SSE
Okean 1 3.6 18:32:13 10° N 18:36:08 44° ENE 18:40:01 10° SSE
Cosmos 1340 3.6 18:36:01 10° NNE 18:39:20 28° ENE 18:42:37 10° SE
USA 215 4.3 18:37:01 10° NE 18:42:49 35° NNW 18:48:36 10° WNW
Nadezhda 1 Rocket 3.9 18:37:10 10° N 18:43:18 90° NNE 18:49:22 10° S
Meteor 1-28 Rocket 3.8 18:39:45 10° N 18:43:31 61° WNW 18:47:15 10° SSW
Cosmos 2322 4.4 18:39:25 10° NNW 18:44:37 34° NE 18:48:38 15° ESE
Tiangong 2 1.8 18:46:16 10° W 18:49:13 43° S 18:50:56 21° SE
Cosmos 1536 Rocket 3.7 18:45:02 10° N 18:49:25 54° ENE 18:53:48 10° SSE
CZ-2D R/B 4.1 18:47:18 16° ESE 18:49:32 28° ENE 18:52:50 10° N
NOSS 2-2 (D) 3.7 18:46:31 10° SW 18:50:36 78° NW 18:55:27 10° NE
Cosmos 1818 4.2 18:45:54 10° S 18:50:48 35° ESE 18:54:45 15° NE
Cosmos 2181 Rocket 4.2 18:45:22 10° N 18:51:22 48° ENE 18:57:25 10° SSE
Meteor 1-25 Rocket 4.2 18:46:14 10° S 18:51:50 84° E 18:57:33 10° NNE
Resurs 01 Rocket 1.7 18:49:17 10° SSE 18:53:33 51° ENE 18:57:51 10° N
DNEPR-1 R/B 3.4 18:49:13 10° NW 18:53:34 89° E 18:57:46 10° SE
Meteor 2-4 Rocket 4.4 18:49:34 10° N 18:54:32 31° ENE 18:58:03 16° ESE
COSMOS 2428 3.9 18:50:27 10° N 18:55:01 24° NE 18:56:56 20° ENE
Cosmos 44 3.8 18:55:21 10° NW 18:59:43 54° WSW 19:03:54 10° SSE
Meteor 1-11 Rocket 4.2 18:55:20 10° SSE 19:00:35 38° E 19:05:58 10° NNE
DELTA 2 R/B (1) 4.2 18:57:12 10° WSW 19:02:34 47° S 19:05:58 21° ESE
H-2A R/B 2.8 18:59:14 10° SSE 19:02:49 50° ENE 19:06:27 10° N
FENGYUN 3A 3.6 18:58:22 10° SSE 19:03:45 80° ENE 19:09:12 10° NNW
NOSS 2-2 (C) 4.2 19:03:49 10° SW 19:07:52 55° NW 19:12:41 10° NNE
deb Kosmos-1763 4.1 19:04:58 10° SSW 19:08:47 90° W 19:12:36 10° NNE
Cosmos 2237 Rocket 4.0 19:07:00 10° N 19:09:47 14° NE 19:10:17 13° NE
Cosmos 1812 3.9 19:06:30 10° NNW 19:10:13 45° W 19:13:54 10° SSW
Cosmos 676 Rocket 3.9 19:11:28 10° S 19:16:33 62° ESE 19:21:43 10° NNE
Cosmos 2074 Rocket 4.5 19:11:23 10° SSE 19:16:56 35° E 19:22:32 10° NNE
Cosmos 407 Rocket 3.4 19:11:42 10° SSW 19:16:56 88° ESE 19:22:17 10° NNE
Cosmos 1709 Rocket 3.9 19:12:17 10° S 19:18:32 80° E 19:24:44 10° N
Resurs 1-3 3.5 19:16:50 10° SSE 19:21:13 83° ENE 19:25:38 10° NNW
USA 186 3.9 19:25:49 15° N 19:25:49 15° N 19:26:31 10° N
Cosmos 1300 Rocket 3.4 19:21:34 10° S 19:25:55 66° E 19:30:20 10° NNE
ATLAS CENTAUR R/B 4.2 19:26:59 10° WNW 19:28:57 13° NNW 19:30:53 10° N
Cosmos 2360 Rocket 2.1 19:23:43 10° NNW 19:29:24 76° ENE 19:32:44 26° SE
SAR-Lupe-1 3.9 19:33:10 79° E 19:33:13 79° ENE 19:36:49 10° N
Cosmos 2219 Rocket 3.3 19:28:56 10° N 19:33:20 26° NE 19:33:20 26° NE
Cosmos 2208 Rocket 4.3 19:29:30 10° NNW 19:34:48 47° ENE 19:35:31 45° E
Cosmos 1602 3.6 19:31:20 10° S 19:35:11 90° ESE 19:39:07 10° N
Cosmos 2285 Rocket 4.5 19:30:12 10° N 19:36:14 39° ENE 19:37:06 38° ENE
SAR-Lupe-4 3.6 19:36:35 51° S 19:37:23 77° WSW 19:40:59 10° NNW
SL-16 R/B 4.3 19:38:14 10° NNE 19:39:22 11° NNE 19:39:22 11° NNE
GEOS 3 Rocket 4.0 19:35:51 14° NNE 19:40:23 61° NW 19:45:34 10° SW
ALOS 3.6 19:38:43 10° SSW 19:43:06 41° W 19:47:33 10° NNW
Cosmos 1238 Rocket 3.4 19:43:47 10° NNW 19:46:37 41° W 19:46:37 41° W
Cosmos 1140 Rocket 3.3 19:42:39 10° S 19:47:44 72° ESE 19:49:25 42° NE
Cosmos 1833 4.0 19:42:23 10° SSW 19:48:06 79° ESE 19:51:45 23° NNE
Spot 1 4.1 19:49:08 43° S 19:50:20 68° WSW 19:54:27 10° NNW
Spot 2 Rocket 4.4 19:45:58 10° S 19:50:50 48° W 19:55:45 10° NNW
Cosmos 2333 Rocket 3.3 19:46:02 10° N 19:50:09 28° NE 19:50:09 28° NE
Okean 1 Rocket 3.0 19:48:18 10° S 19:52:47 85° W 19:57:19 10° N
SL-16 R/B 4.2 19:55:25 10° NW 20:00:03 26° WSW 20:04:40 10° SSW
Okean 1-7 Rocket 3.7 19:57:05 10° NNW 20:01:38 75° W 20:01:49 74° WSW
Helios 1A 3.7 20:02:04 41° SSW 20:03:05 52° W 20:07:11 10° NNW
Cosmos 1633 4.2 20:01:15 10° SW 20:04:39 35° WNW 20:08:05 10° N
Envisat 3.0 20:07:28 67° NNE 20:07:28 67° NNE 20:11:57 10° N
Cosmos 1954 Rocket 4.5 20:04:16 10° SW 20:09:22 59° WNW 20:14:34 10° NNE
USA 229 DEB 3.8 20:02:32 10° NW 20:09:36 62° NE 20:10:23 59° ENE
USA 229 3.8 20:02:39 10° NW 20:09:42 62° NE 20:10:27 58° ENE
ERS-1 Rocket 4.2 20:25:45 32° N 20:25:45 32° N 20:28:27 10° N
USA 215 4.2 20:23:42 32° NNE 20:24:49 34° N 20:30:33 10° NW
ATLAS 2AS CENTAUR R/B 4.4 20:20:32 10° NW 20:26:50 23° NNE 20:28:35 22° NNE
Resurs 01 Rocket 4.4 20:27:28 10° SW 20:30:19 17° W 20:33:12 10° NW
COSMOS 2428 3.2 20:34:10 10° NNW 20:39:01 59° WNW 20:39:01 59° WNW
NOSS 3-1 (C) 4.3 20:37:00 10° NNW 20:43:24 51° NNE 20:43:24 51° NNE
BREEZE-M DEB (TANK) 4.4 20:41:30 10° WNW 20:44:45 55° WSW 20:44:45 55° WSW
Cosmos 2237 Rocket 3.7 20:49:26 10° NNW 20:52:08 28° N 20:52:08 28° N
Cosmos 2219 Rocket 3.9 21:12:26 10° NNW 21:15:05 28° NW 21:15:05 28° NW
SL-16 R/B 4.5 21:19:59 10° NNW 21:21:16 17° NNW 21:21:16 17° NNW
Cosmos 2333 Rocket 4.3 21:29:58 10° NW 21:32:10 23° NW 21:32:10 23° NW
